This demonstration page uses our WeatherBlox Daily Observations layout. Learn more.

Left ArrowRight Arrow

39.95238, -75.16362

Hourly Observations for April 13, 2022

Temp ( °F °C ) Dew Point ( °F °C ) Humidity (%) Winds ( mph kmh ) Pressure ( in mb ) Visibility ( mi km ) Precip ( " mm )
12:54 am 00:54 Mostly Cloudy 55 12.8 47 8.3 74 74 SSE 7 11 30.07 1018 10 16 0.00 0.00
1:54 am 01:54 Partly Cloudy 56 13.3 47 8.3 72 72 ENE 3 6 30.06 1018 10 16 0.00 0.00
2:54 am 02:54 Partly Cloudy 54 12.2 47 8.3 77 77 E 5 7 30.05 1018 10 16 0.00 0.00
3:54 am 03:54 Mostly Clear 53 11.7 48 8.9 83 83 NE 5 7 30.05 1018 10 16 0.00 0.00
4:54 am 04:54 Mostly Clear 54 12.2 46 7.8 75 75 NE 3 6 30.04 1017 10 16 0.00 0.00
5:54 am 05:54 Partly Cloudy 52 11.1 46 7.8 80 80 NE 5 7 30.04 1017 10 16 0.00 0.00
6:54 am 06:54 Mostly Cloudy 53 11.7 47 8.3 80 80 NE 6 9 30.06 1018 10 16 0.00 0.00
7:54 am 07:54 Mostly Cloudy 56 13.3 51 10.6 84 84 ENE 6 9 30.07 1018 10 16 0.00 0.00
8:54 am 08:54 Mostly Cloudy 61 16.1 52 11.1 72 72 E 6 9 30.05 1018 10 16 0.00 0.00
9:54 am 09:54 Partly Cloudy 65 18.3 52 11.1 63 63 SE 6 9 30.04 1017 10 16 0.00 0.00
10:54 am 10:54 Partly Cloudy 68 20 54 12.2 61 61 SSE 7 11 30.02 1017 10 16 0.00 0.00
11:54 am 11:54 Partly Cloudy 73 22.8 57 13.9 57 57 VRB 5 7 30.01 1016 10 16 0.00 0.00
12:54 pm 12:54 Mostly Cloudy 76 24.4 58 14.4 54 54 SSW 8 13 29.97 1015 10 16 0.00 0.00
1:54 pm 13:54 Mostly Cloudy 78 25.6 58 14.4 50 50 S 10 17 29.94 1014 10 16 0.00 0.00
2:54 pm 14:54 Mostly Cloudy 79 26.1 76 24.4 90 90 S 10 17 29.90 1013 10 16 0.00 0.00
3:54 pm 15:54 Mostly Cloudy 80 26.7 58 14.4 47 47 WSW 9 15 29.88 1012 10 16 0.00 0.00
4:54 pm 16:54 Cloudy 80 26.7 59 15 49 49 SW 8 13 29.85 1011 10 16 0.00 0.00
5:54 pm 17:54 Cloudy 79 26.1 58 14.4 49 49 S 8 13 29.85 1011 10 16 0.00 0.00
6:54 pm 18:54 Cloudy 77 25 59 15 54 54 S 9 15 29.84 1011 10 16 0.00 0.00
7:54 pm 19:54 Cloudy 76 24.4 59 15 56 56 S 6 9 29.82 1010 10 16 0.00 0.00
8:54 pm 20:54 Cloudy 74 23.3 59 15 60 60 S 7 11 29.83 1010 10 16 0.00 0.00
9:54 pm 21:54 Cloudy 74 23.3 58 14.4 57 57 S 9 15 29.81 1009 10 16 0.00 0.00
10:54 pm 22:54 Mostly Cloudy 71 21.7 58 14.4 63 63 S 7 11 29.79 1009 10 16 0.00 0.00
11:54 pm 23:54 Mostly Cloudy 69 20.6 58 14.4 68 68 SSW 7 11 29.79 1009 10 16 0.00 0.00

Powered by AerisWeather